Wind_Speed
58 59 59 59 58 56 55 54 53 54 54 55 56 55 55 54 55 55 56 57 57 57 57 58 59 59 58 57 55 53 50 50 52 51 46 38 33 32 28 27 28 27 28 30 28 26 26 26 25 23 21 19 18 19 21 23 21 16 15 15 16 16 17 18 17 19 22 26 27 26 25 24 22 20 19 19 19 22 24 25 23 22 23 24 26
60 59 58 57 56 55 55 54 53 54 55 56 56 56 56 56 57 57 57 58 58 58 58 59 59 58 56 54 50 46 43 42 43 44 44 40 35 34 31 29 29 26 26 30 29 28 28 26 23 21 21 20 21 24 25 24 20 17 17 18 18 18 18 19 20 22 25 28 28 27 26 25 22 19 18 18 19 22 25 26 24 22 23 25 26
62 61 60 59 58 58 56 55 55 56 57 58 58 58 58 58 59 59 59 59 59 59 59 59 57 55 53 50 46 43 40 37 35 35 38 37 35 35 33 30 28 25 25 28 29 30 29 26 23 21 20 21 23 26 26 23 19 17 19 20 19 18 19 21 23 24 26 29 29 28 27 26 23 19 17 17 18 22 26 28 25 22 23 25 26
65 64 63 62 61 60 59 58 58 59 60 60 60 59 59 59 60 61 60 60 60 59 59 57 55 51 49 47 45 44 42 41 40 40 41 40 38 37 33 30 28 25 24 26 28 31 30 27 25 22 21 22 23 25 25 22 18 16 19 21 19 18 20 22 24 26 27 29 30 29 28 26 24 20 17 16 17 21 26 27 24 22 24 25 26
67 66 65 64 62 62 61 60 60 60 60 60 60 60 60 60 61 61 61 60 60 58 56 54 51 48 46 45 44 44 43 43 44 46 47 45 41 40 36 31 28 26 25 25 27 30 31 28 26 24 24 23 22 25 26 23 18 16 18 22 22 21 23 25 26 27 27 28 30 30 29 27 24 21 20 18 17 20 23 23 22 23 25 26 26
68 67 66 65 64 63 61 60 60 60 60 60 60 60 60 61 61 61 60 59 58 56 52 49 46 44 44 43 44 44 43 43 45 48 50 48 43 42 41 34 29 27 25 24 26 29 30 28 26 27 26 25 24 25 26 25 21 17 17 23 26 24 25 27 26 26 25 26 29 31 30 28 24 22 23 22 20 20 21 22 23 25 27 27 26
68 68 67 66 64 63 61 61 61 61 60 60 60 59 60 60 60 60 58 57 54 51 47 45 44 43 43 42 42 43 42 42 43 46 50 50 45 43 43 37 31 28 26 24 27 29 29 27 27 28 28 27 25 25 26 27 25 21 19 22 27 27 28 29 27 26 26 26 28 30 29 28 25 25 25 24 23 22 23 24 25 27 28 28 27
68 68 67 66 64 63 61 60 61 61 60 60 59 59 60 59 59 58 56 53 50 47 44 43 43 42 42 41 40 41 41 41 42 44 47 50 48 44 42 39 33 28 26 26 27 30 30 29 28 26 26 27 25 25 27 28 27 24 21 23 28 31 32 31 30 29 29 28 28 29 29 29 28 28 27 27 26 25 26 27 27 28 29 29 29
67 67 67 65 64 62 61 60 61 60 59 59 59 58 58 58 57 55 53 50 46 44 43 42 41 41 41 40 39 40 40 40 42 43 46 48 49 45 43 42 37 30 27 27 29 31 32 32 31 27 27 28 27 28 30 30 30 27 24 25 29 32 33 33 31 29 29 28 29 29 28 29 30 29 28 27 27 28 28 29 28 28 28 29 29
66 67 66 65 63 61 60 60 60 59 58 58 58 57 56 56 55 53 50 47 45 43 42 40 40 40 40 40 40 39 39 40 42 44 45 47 50 48 45 44 42 34 29 28 29 33 35 35 34 31 30 30 28 29 32 32 31 29 26 26 29 31 32 32 30 28 30 30 29 29 29 30 30 30 28 26 27 27 27 28 27 27 27 28 28
65 66 65 64 62 61 60 59 58 57 57 56 56 55 55 55 53 50 48 45 44 42 41 41 41 40 40 40 40 40 39 39 42 44 46 47 50 50 47 45 45 40 34 30 29 33 38 39 38 35 34 34 32 31 33 33 33 31 27 26 29 31 32 30 27 29 33 32 30 30 30 30 29 28 27 27 27 26 26 26 26 25 26 26 27
64 65 64 63 61 60 58 57 57 56 55 55 55 54 54 53 51 49 46 44 43 42 42 42 41 40 40 40 39 40 40 41 43 45 47 49 51 52 49 46 46 45 40 35 32 33 38 41 42 41 39 39 38 36 35 35 34 33 30 29 30 31 31 30 28 31 36 35 31 31 31 29 28 27 28 28 28 26 25 25 24 25 26 27 29
63 63 63 62 60 58 57 56 55 55 55 54 54 54 54 52 50 47 45 44 43 42 43 42 41 40 41 40 39 38 39 42 45 47 49 50 52 53 51 45 43 46 47 42 37 35 37 40 44 46 44 42 41 38 36 36 35 33 32 31 32 33 32 31 31 34 38 37 35 32 31 30 29 28 29 29 29 29 28 28 29 30 31 32 33
62 63 62 61 59 57 56 55 55 55 55 54 54 54 53 51 49 46 45 44 43 43 44 43 42 42 42 41 40 39 39 40 44 49 51 52 53 54 53 46 39 41 47 47 43 40 38 39 42 46 48 46 43 40 36 34 34 33 32 30 31 33 33 32 34 37 38 39 38 35 32 32 30 29 30 32 32 33 33 33 34 35 37 37 36
60 61 61 60 58 56 55 55 55 55 55 54 54 54 52 50 48 46 44 44 44 44 44 44 43 43 43 43 42 41 41 40 42 46 51 54 54 54 56 54 45 39 41 46 47 45 43 42 41 44 48 49 46 43 39 35 34 33 32 31 31 33 33 34 37 38 38 39 38 37 34 33 31 29 32 34 34 34 34 34 36 37 38 37 36
58 59 59 58 56 55 55 54 55 55 55 55 55 54 52 49 47 46 45 45 45 45 45 45 44 44 44 45 44 43 42 42 42 43 48 53 56 57 57 57 55 48 41 39 43 46 46 46 45 44 47 50 47 45 43 40 37 36 34 33 33 33 34 36 37 36 37 38 38 38 36 34 32 31 33 35 35 35 37 38 38 38 38 38 39
57 58 58 56 55 54 54 54 55 56 55 55 55 53 51 49 48 46 46 46 46 46 46 46 45 45 46 46 45 44 42 42 42 42 45 49 54 59 59 58 57 56 49 39 37 43 46 48 48 46 47 49 47 45 44 42 40 40 38 36 36 36 36 37 35 34 35 37 38 38 37 36 35 33 34 36 37 37 38 39 40 40 40 41 42
56 57 56 55 54 54 53 53 55 55 55 55 54 53 51 50 48 47 47 47 47 47 47 47 46 47 47 47 46 44 43 43 43 43 44 45 49 54 58 59 57 58 57 47 40 42 46 48 48 46 47 50 49 47 45 44 43 41 39 37 38 39 40 39 35 34 36 37 38 38 37 38 38 37 38 39 39 39 39 39 40 41 41 42 42
55 55 55 54 53 53 53 53 54 55 55 55 54 53 51 50 49 48 48 48 48 48 47 47 47 48 48 47 46 45 45 46 46 46 45 44 45 48 52 56 56 59 61 55 50 48 46 48 49 46 46 49 51 50 46 44 44 43 40 38 40 43 43 42 39 37 38 40 41 39 38 39 40 40 41 41 40 40 41 41 42 42 42 43 42
55 55 54 53 52 52 52 53 54 55 55 54 53 53 52 51 50 49 49 49 48 48 47 47 48 48 48 48 47 47 47 47 47 48 48 45 44 44 47 51 55 58 57 54 55 55 49 48 50 46 45 48 52 52 49 45 44 43 41 40 43 46 44 43 42 41 41 42 42 41 41 42 43 43 43 42 42 42 43 44 45 44 45 45 43
56 55 54 52 52 52 53 54 55 55 55 54 53 53 53 52 51 50 50 49 49 48 47 48 49 49 49 49 48 48 48 48 48 48 47 46 44 41 43 48 54 57 55 51 53 56 51 49 48 46 46 48 51 53 51 48 45 43 40 39 41 46 46 44 44 45 45 45 45 46 46 44 43 44 44 44 43 42 43 45 46 46 46 46 45
55 54 53 52 51 52 53 54 55 55 55 54 54 54 53 52 51 51 51 50 49 49 48 49 50 50 50 50 49 50 49 49 49 48 47 45 43 41 40 46 53 58 60 57 55 56 53 51 48 45 45 47 50 54 53 51 50 48 45 43 42 44 45 44 44 45 46 48 49 49 48 45 43 43 44 43 41 40 41 42 43 44 45 45 45
54 53 52 52 52 53 54 55 55 55 55 54 54 54 53 52 51 51 51 50 50 50 50 51 52 52 52 51 51 51 50 49 48 47 46 45 43 40 39 43 50 56 61 61 60 60 56 53 51 47 44 45 46 50 53 54 54 52 51 50 48 46 44 44 45 44 44 46 48 48 47 45 43 43 44 44 42 41 40 41 43 45 46 46 44
53 53 53 53 53 54 54 55 55 55 55 54 54 54 53 52 52 52 52 51 51 51 52 53 53 53 53 53 52 52 51 50 48 46 44 44 44 40 38 40 45 52 58 59 61 64 60 55 54 50 48 47 44 43 48 52 55 55 54 53 52 51 48 46 45 45 45 46 47 47 47 46 45 44 44 45 45 44 43 42 43 46 48 47 45
52 52 53 53 54 54 55 55 55 55 54 54 54 54 53 53 52 53 53 52 52 53 53 54 55 55 54 54 54 53 52 50 48 46 42 42 44 42 38 38 40 46 54 56 59 65 64 57 53 52 51 50 47 42 42 46 51 53 53 52 52 53 53 50 48 47 47 49 50 49 49 49 47 46 46 47 47 48 46 44 43 44 45 45 43
53 53 53 53 54 54 55 55 55 54 54 55 54 54 54 53 54 54 54 54 54 54 55 55 55 55 55 55 55 54 53 50 48 46 42 41 42 42 39 38 38 40 47 54 57 63 67 61 52 51 52 52 52 49 43 44 47 48 48 48 49 52 53 52 50 48 48 49 51 52 51 50 50 50 50 49 50 51 50 48 46 44 42 41 42
54 54 53 53 54 54 54 55 55 54 55 55 55 55 55 55 55 55 55 55 55 56 56 56 56 56 56 56 56 55 54 51 48 46 42 40 40 41 39 37 36 36 41 50 55 61 69 64 53 51 52 51 54 55 49 46 48 49 47 46 48 51 52 50 48 48 49 50 50 51 51 50 51 53 53 52 53 54 54 52 50 49 46 43 43
54 54 54 53 54 54 54 55 55 55 55 56 56 56 56 56 57 56 56 57 57 57 57 57 57 57 57 57 57 57 55 52 49 46 42 39 38 39 39 37 36 35 37 46 53 60 68 67 58 54 53 50 53 58 55 49 49 51 49 46 47 50 51 49 49 50 52 53 51 49 49 48 50 53 55 55 55 56 55 54 53 53 51 48 45
54 54 54 54 54 54 54 55 55 55 56 56 57 57 57 57 58 58 58 58 58 58 58 58 57 57 57 58 58 58 57 54 51 48 44 39 37 37 38 36 34 34 35 42 51 59 67 69 64 60 56 52 54 58 57 52 51 51 50 48 48 50 52 51 51 52 54 54 52 49 47 47 49 53 55 56 57 57 57 56 54 54 53 51 49
54 54 54 54 54 54 55 55 55 56 56 57 57 58 58 58 58 58 59 59 60 60 59 59 59 59 59 59 59 59 58 56 53 49 45 40 37 36 36 36 34 33 35 39 48 57 65 70 69 65 61 56 55 57 56 55 53 50 47 48 49 53 57 57 55 54 54 55 54 52 49 49 50 52 54 57 58 57 58 58 56 55 56 56 55
54 54 55 55 54 55 55 55 55 56 56 57 57 58 58 59 59 59 60 60 61 61 61 60 60 60 60 60 60 60 59 57 55 51 47 42 38 36 35 36 34 34 35 38 45 54 62 68 70 69 65 60 57 56 56 57 55 50 46 46 48 52 57 59 60 59 56 56 56 54 52 52 52 52 53 56 58 57 57 57 56 55 56 57 57
54 55 55 55 55 55 56 56 56 56 56 57 58 58 58 59 60 60 60 61 62 62 62 62 62 62 62 62 62 61 60 59 57 53 48 44 40 37 35 35 35 34 36 39 44 52 59 66 70 71 69 65 60 57 57 59 58 55 51 47 45 47 52 56 60 61 60 59 59 56 53 51 52 53 53 55 58 58 58 57 56 55 56 57 58
55 55 55 55 56 56 56 56 56 57 57 58 58 59 59 60 60 61 61 62 63 63 63 64 64 64 64 64 63 63 62 61 59 56 51 45 41 38 36 36 35 35 37 40 44 50 57 64 69 70 70 69 65 62 61 62 62 61 59 53 46 44 47 49 53 57 58 59 58 55 51 50 52 54 53 55 58 60 59 57 57 57 58 59 60
56 56 55 56 56 57 57 57 57 58 58 59 59 60 60 61 62 62 63 64 64 65 65 66 66 66 66 65 65 64 64 63 62 59 54 47 42 39 37 37 37 36 37 40 45 50 56 63 68 70 70 69 68 66 66 66 65 65 64 59 52 50 49 47 49 51 53 54 55 52 50 51 53 55 54 56 58 59 59 58 58 59 60 61 62
56 56 56 56 57 57 58 58 58 59 60 60 61 61 62 63 64 64 65 66 66 67 67 67 68 68 67 67 67 66 66 66 65 62 58 51 44 40 38 38 39 38 38 40 45 50 55 61 67 70 71 70 69 69 68 69 69 67 65 62 60 61 60 57 55 54 54 54 54 52 50 50 52 55 56 57 59 59 59 59 59 59 60 60 61
56 57 57 57 58 59 60 60 60 61 61 62 62 63 64 65 66 67 67 68 68 69 69 69 69 69 69 69 69 68 68 68 67 65 62 56 48 42 39 39 40 41 40 41 45 50 54 59 65 70 72 72 71 71 70 70 71 70 68 66 66 66 67 67 64 61 59 58 56 55 53 52 54 57 58 58 59 59 60 60 59 60 60 59 59
56 56 57 58 60 61 61 62 62 62 63 64 64 66 67 68 69 69 70 70 71 71 71 71 71 71 71 71 72 71 71 70 69 67 64 59 52 45 40 39 41 44 43 43 45 50 54 58 62 67 71 72 72 73 72 72 72 73 72 70 68 67 67 68 67 64 62 61 59 58 57 56 57 60 61 61 61 61 61 62 62 62 62 62 61
56 57 58 59 61 62 64 64 64 64 65 66 67 68 69 70 71 71 72 72 73 73 73 73 73 73 74 74 74 75 74 73 71 68 64 60 55 49 43 40 41 45 47 46 46 49 54 58 60 64 68 71 71 71 73 73 73 74 74 73 71 69 68 68 67 66 64 64 62 60 59 59 61 63 64 65 65 64 64 65 64 63 64 64 62
57 58 59 60 62 63 65 66 66 67 68 68 69 70 71 71 72 73 73 74 74 75 75 75 75 76 76 77 78 78 76 74 71 67 64 60 57 52 47 43 41 45 49 50 49 49 53 57 61 63 65 68 70 70 70 71 73 74 74 74 73 72 70 69 68 68 67 67 66 65 64 65 67 68 68 67 67 67 67 67 66 64 65 65 64
58 58 59 61 62 64 65 67 67 68 69 70 70 71 72 73 74 74 75 76 76 76 77 77 78 79 80 81 81 79 77 73 69 66 62 60 58 55 51 47 43 43 49 53 54 53 53 56 60 63 65 67 68 69 70 70 71 73 74 73 73 73 72 70 70 69 69 69 69 68 68 69 71 71 69 68 67 67 67 66 65 64 65 66 65
59 59 60 61 62 63 65 66 67 68 69 70 71 73 74 75 75 76 77 77 78 79 80 80 81 82 83 83 81 77 74 70 66 64 61 59 58 57 55 52 48 45 47 53 57 57 57 57 59 62 66 67 68 69 70 70 70 71 72 73 72 72 72 72 71 70 71 71 71 70 70 71 72 72 71 71 70 68 68 67 66 67 68 69 68
59 60 61 62 63 64 65 66 68 69 70 72 73 74 75 76 77 78 79 80 81 82 83 84 85 85 83 80 77 73 69 66 64 62 60 59 59 58 57 56 53 49 47 50 57 61 61 61 60 62 64 67 68 69 69 71 71 70 71 71 71 71 71 71 71 72 72 73 72 71 71 72 73 73 73 73 73 72 71 71 71 71 72 72 72
60 61 62 63 64 65 67 68 69 71 72 74 75 76 78 79 80 81 82 84 85 86 86 86 84 82 79 75 72 69 66 64 63 61 60 60 60 59 59 58 57 55 51 50 54 60 64 65 64 64 65 66 68 70 70 71 71 71 71 71 70 69 69 70 72 73 74 75 74 73 73 73 73 75 76 75 74 74 73 73 72 73 74 75 75
62 63 64 65 67 68 69 70 71 73 74 76 77 78 80 81 83 84 86 87 87 87 85 83 80 77 74 72 70 68 67 66 64 63 63 62 61 61 61 61 60 59 57 54 53 57 64 67 68 68 68 68 68 69 71 72 72 72 72 72 70 68 68 70 72 73 74 76 75 74 73 73 74 76 76 75 75 74 73 72 71 72 73 74 74
64 65 66 67 69 70 71 72 74 75 76 78 79 81 83 84 86 87 87 86 85 83 81 78 77 75 74 73 72 71 71 70 69 67 66 66 65 64 63 63 62 62 62 60 57 56 60 66 70 71 71 72 71 70 70 72 74 74 73 73 72 71 71 72 72 72 72 73 72 71 72 73 75 76 76 75 74 74 74 73 72 71 71 72 72
66 67 68 69 71 72 73 74 76 78 79 81 82 84 85 85 85 84 82 81 79 79 78 78 78 77 77 77 76 75 74 73 71 70 69 68 67 66 66 65 65 64 64 64 63 60 59 63 69 73 74 74 75 74 73 71 73 75 76 75 74 74 74 73 73 73 73 72 71 70 71 72 74 76 76 74 73 73 74 75 75 74 74 73 73
67 69 70 71 72 74 75 77 79 81 82 83 83 83 82 80 79 78 78 78 78 79 79 79 79 79 78 77 75 74 72 71 69 68 67 67 66 66 66 67 67 67 66 65 66 66 63 61 64 70 74 76 77 77 77 75 73 74 76 78 79 78 77 76 76 76 76 75 73 73 73 73 73 74 73 72 72 72 73 73 74 75 75 76 76
69 71 72 74 75 77 78 80 80 81 80 79 78 77 76 76 77 77 78 79 79 79 79 78 77 76 74 72 71 69 68 66 65 64 64 64 63 63 64 65 66 68 68 67 67 68 68 65 64 66 70 75 78 78 79 79 78 76 76 77 80 82 82 80 79 79 79 78 77 76 75 74 74 73 72 71 71 72 74 73 73 73 74 76 77
72 74 75 76 77 77 77 77 76 75 74 74 74 74 75 76 77 77 77 77 76 75 74 73 71 70 69 68 67 66 65 64 62 61 61 61 61 61 62 63 64 66 68 68 68 68 69 69 68 66 67 71 76 80 80 81 81 81 80 78 80 82 85 85 84 83 82 81 81 80 78 77 75 74 73 72 72 73 75 76 75 74 75 76 77
74 74 74 74 73 72 71 71 71 71 72 73 73 74 75 74 74 73 73 72 71 70 69 69 68 67 66 66 65 65 64 63 62 60 59 59 59 59 60 61 62 63 65 66 67 68 69 70 71 70 69 70 73 78 82 83 83 83 84 83 82 83 84 87 87 87 85 85 84 84 83 82 80 78 76 75 75 76 78 79 80 78 77 77 77
70 70 69 68 68 68 68 69 70 71 71 71 71 71 70 70 69 69 68 68 67 67 66 65 64 63 62 61 61 60 60 60 60 60 59 58 57 57 58 59 60 62 63 64 65 66 68 70 71 73 73 72 73 75 80 84 86 85 85 85 86 86 86 87 88 89 89 88 86 86 85 86 86 85 83 82 81 80 80 81 81 81 80 80 79
Wind_Direction
258 259 260 261 263 265 267 269 270 270 270 270 271 273 274 275 276 276 276 277 278 279 281 281 282 283 283 283 282 283 282 281 279 271 267 269 269 270 271 270 271 273 274 270 257 239 228 227 227 224 225 226 228 234 243 253 261 263 256 245 242 255 268 274 275 278 287 292 291 282 269 262 262 265 265 270 284 290 285 284 282 285 297 304 305
257 258 259 261 263 265 267 268 269 270 270 272 274 275 276 276 277 278 278 280 281 282 283 284 285 285 285 283 282 281 281 281 282 278 272 270 269 268 266 266 267 269 271 268 256 239 226 223 225 227 228 230 233 240 245 249 251 252 253 249 247 256 264 267 269 273 286 296 294 283 272 265 264 264 264 267 282 290 291 291 286 288 297 301 301
256 257 259 261 264 265 266 267 268 268 270 272 274 276 277 278 278 279 281 282 284 285 285 286 286 285 283 280 276 272 268 264 267 270 268 262 257 257 258 261 263 263 264 263 252 235 222 218 221 225 228 234 237 240 242 244 244 249 257 258 256 258 258 260 265 273 287 296 294 286 277 270 266 264 261 266 279 289 291 290 287 291 297 299 299
258 259 260 262 264 265 266 267 267 268 270 272 274 276 277 279 280 281 282 284 285 286 287 287 286 284 280 276 273 269 263 257 254 253 254 251 248 249 253 257 258 257 257 256 245 232 221 215 216 219 223 231 237 237 237 240 237 240 257 263 257 252 252 257 265 275 288 293 290 286 280 273 267 261 260 268 279 287 287 285 284 291 296 298 300
259 260 261 262 263 265 266 267 268 269 271 272 274 276 278 279 281 282 284 285 286 287 287 286 285 282 278 274 271 268 263 258 253 249 249 249 246 247 250 252 254 254 252 249 243 232 219 211 213 218 220 224 233 237 239 241 235 231 250 262 258 251 251 258 266 275 285 289 287 284 279 274 268 259 258 263 272 283 286 282 284 289 293 297 299
258 259 261 262 263 264 265 266 267 269 271 272 274 276 278 279 281 283 285 286 287 287 287 285 282 279 276 273 271 268 264 258 254 250 249 246 244 244 245 247 249 251 247 242 242 230 214 212 218 218 218 221 227 235 239 243 239 228 237 256 261 256 252 256 264 272 280 284 286 284 279 274 270 263 260 259 260 274 284 285 286 288 290 293 295
258 259 260 261 262 263 264 266 267 269 270 272 274 276 278 280 282 283 285 286 287 287 285 282 280 277 275 273 270 268 265 260 255 251 248 245 244 244 244 243 245 247 243 236 236 227 216 220 223 217 219 224 226 231 237 242 241 230 228 245 256 256 252 254 261 270 275 278 283 283 278 274 270 264 263 264 264 269 280 284 284 286 288 289 291
257 258 259 260 261 262 264 265 267 269 270 272 274 275 278 280 282 283 285 286 285 284 282 280 279 279 278 274 271 268 265 262 257 252 247 244 243 245 244 240 240 241 238 233 230 227 223 224 221 217 224 227 227 233 238 240 239 233 229 236 247 252 251 252 261 270 270 274 281 280 277 278 276 271 268 269 270 270 276 280 282 285 287 288 291
256 257 258 260 261 262 263 265 266 268 270 272 274 275 277 279 281 284 284 284 283 281 280 280 281 281 279 277 273 270 266 263 260 255 249 244 242 245 244 239 237 236 236 234 230 227 226 222 218 222 229 226 225 233 239 240 238 237 234 234 243 249 249 251 259 267 267 272 281 279 276 279 282 280 275 272 272 273 275 278 281 284 287 289 291
255 257 258 259 261 262 263 264 266 268 270 272 273 275 277 279 281 283 283 282 280 280 281 282 282 281 281 279 276 272 267 262 259 257 253 247 243 244 244 239 236 234 235 237 232 229 228 222 218 224 228 224 224 230 234 237 239 238 236 236 239 243 247 252 256 258 260 268 279 280 275 275 280 282 280 277 276 276 277 279 282 286 288 289 289
255 256 257 259 260 261 262 264 265 267 269 271 273 274 276 278 280 281 280 279 279 280 281 281 282 282 281 280 277 274 269 262 256 255 255 251 246 245 244 241 238 236 236 238 235 230 230 225 221 224 225 223 224 226 227 232 235 236 237 238 238 239 243 248 250 251 254 263 277 279 272 271 279 284 284 281 280 280 281 283 286 287 287 288 290
255 256 257 257 258 260 261 263 265 266 268 270 271 273 275 278 279 278 277 276 277 279 280 280 281 282 281 280 277 274 270 264 257 253 253 252 249 246 246 245 243 240 238 239 236 232 232 230 226 225 224 223 224 224 225 228 230 234 238 240 240 241 242 243 244 247 252 262 273 273 265 267 277 280 280 281 283 284 285 284 284 284 286 289 293
255 255 256 257 257 259 260 262 263 265 266 268 270 272 275 276 276 275 275 275 277 278 279 280 281 282 281 280 278 275 270 265 260 256 253 252 250 248 246 247 248 245 243 241 238 235 234 234 232 228 226 226 226 226 226 227 228 231 236 240 241 242 243 244 244 247 253 261 269 266 259 266 275 274 272 274 277 279 280 280 282 284 287 290 293
255 255 256 256 257 258 259 260 262 263 265 267 269 271 273 274 273 272 273 274 276 277 279 281 282 282 282 282 281 278 273 267 261 257 255 253 252 250 246 244 246 248 248 246 242 239 237 238 238 234 230 229 230 229 228 228 228 229 232 236 239 241 243 243 243 247 251 256 262 262 258 264 270 269 267 267 270 275 278 280 283 285 286 288 289
255 256 256 256 256 257 258 259 261 263 264 266 267 270 271 271 269 269 271 273 274 277 279 281 282 283 283 282 282 280 278 274 267 261 256 254 253 252 248 243 240 244 248 249 248 246 241 239 241 239 233 231 232 234 233 232 230 230 231 234 238 240 240 242 242 245 248 250 255 259 258 261 264 266 269 271 273 278 282 283 285 286 286 286 287
255 256 256 256 255 256 257 258 260 262 263 265 267 269 269 268 266 267 269 271 273 276 279 280 281 281 281 281 281 280 279 277 274 268 261 256 252 251 250 245 240 239 243 247 251 252 246 239 238 240 236 232 234 237 237 235 233 233 233 235 239 239 237 240 243 242 244 248 252 256 258 258 261 267 272 273 275 278 279 281 284 286 288 289 292
255 255 255 255 255 255 256 257 259 261 262 264 266 268 267 265 265 267 269 271 273 276 279 280 280 281 281 281 281 282 282 281 278 275 268 262 255 251 250 249 243 239 239 241 245 248 245 238 234 237 237 234 235 237 237 236 235 236 238 238 240 240 238 241 244 239 241 247 249 252 255 257 261 266 268 268 270 272 275 278 282 286 288 290 292
254 255 255 255 254 254 255 256 258 260 262 264 266 266 265 264 265 267 269 271 274 277 279 280 281 281 283 283 284 286 288 289 287 282 276 269 262 255 251 250 248 244 241 239 240 243 241 234 230 232 235 235 236 238 237 236 235 237 240 241 241 241 241 244 244 240 240 245 247 248 251 257 264 267 267 267 268 271 276 279 282 284 285 288 290
254 254 254 254 253 254 254 256 258 259 261 264 265 264 263 264 266 268 270 272 275 278 280 281 282 283 285 287 288 291 293 293 293 289 283 276 267 259 253 249 248 245 243 241 241 244 240 232 228 230 233 234 235 236 237 236 234 234 238 242 243 243 245 248 248 244 242 246 249 250 252 259 265 267 268 268 269 273 277 278 279 280 282 284 287
253 253 253 253 253 253 254 255 257 258 261 263 262 261 262 264 266 269 271 274 276 279 282 283 284 286 288 290 291 293 294 295 295 292 287 282 273 263 254 248 245 242 240 238 238 241 238 230 227 228 231 233 233 235 236 235 231 230 232 237 242 244 245 248 249 247 246 246 249 251 253 259 263 265 266 267 270 275 278 278 279 279 279 280 283
252 252 252 252 252 253 254 255 257 258 260 261 259 259 261 264 267 270 272 275 278 282 285 286 286 288 290 291 292 293 295 296 296 294 290 285 278 268 256 247 242 239 236 233 232 234 233 228 227 229 230 232 232 233 234 233 230 228 229 233 240 242 244 245 246 246 246 246 249 252 254 256 259 262 266 268 273 279 281 281 281 280 279 278 280
251 251 252 252 251 252 254 255 257 258 259 258 257 258 261 264 267 270 273 277 280 284 287 288 288 289 291 292 293 294 296 297 297 296 292 288 281 272 261 248 241 238 235 231 229 230 229 226 226 228 230 231 232 232 234 234 231 230 231 234 239 242 244 244 243 243 245 247 251 253 254 254 256 261 267 270 274 278 280 282 283 284 282 279 278
250 250 251 251 251 252 253 255 256 258 258 256 257 259 262 265 268 271 275 278 282 285 288 289 290 291 292 294 294 295 297 298 299 298 295 292 286 278 268 253 242 238 236 232 227 226 228 226 224 226 228 228 229 231 234 235 235 235 236 237 241 243 244 244 243 243 245 248 249 251 252 253 255 261 266 269 272 274 277 282 285 285 282 279 277
250 249 250 251 251 252 253 255 256 257 256 256 257 260 263 266 270 273 276 280 283 286 289 290 291 292 294 295 295 296 298 299 300 300 298 295 291 286 276 261 246 238 235 232 225 223 224 224 224 225 226 225 225 228 234 237 237 238 238 239 240 241 242 244 244 244 246 247 248 249 249 250 253 259 263 266 270 273 277 281 283 282 279 276 275
250 249 249 250 251 253 254 255 256 256 255 256 258 261 264 268 271 274 277 281 284 286 288 290 291 293 295 296 295 296 298 300 301 302 300 297 294 290 283 269 253 240 234 230 224 220 220 221 223 226 225 224 223 225 231 236 237 237 238 239 240 239 239 242 245 246 248 250 250 250 250 251 255 259 261 264 267 271 275 275 276 279 277 272 271
249 249 249 250 251 253 254 255 256 256 255 257 259 262 265 269 272 275 278 281 283 286 288 290 291 293 295 295 296 297 298 300 303 304 302 299 296 291 285 275 262 247 235 228 223 219 218 218 222 225 224 224 224 222 226 232 232 232 234 237 239 239 237 239 244 248 250 251 252 252 254 256 259 261 261 264 266 270 272 270 270 276 276 270 267
248 248 249 249 251 252 254 255 256 256 256 258 260 263 266 269 272 275 278 281 283 286 288 289 291 293 295 296 297 298 299 301 304 305 303 301 297 290 284 277 266 253 237 227 221 217 216 217 219 219 220 223 224 221 223 228 228 226 229 234 239 240 238 238 241 244 248 250 251 253 256 258 260 261 261 263 264 267 269 267 268 272 274 270 268
249 249 249 250 251 252 253 254 255 256 257 258 261 264 267 270 273 276 279 281 283 286 287 288 290 292 294 297 298 299 300 302 304 306 304 301 298 289 281 276 267 256 240 227 221 216 215 215 215 214 216 222 223 220 221 226 227 226 227 232 237 239 239 239 238 239 242 246 249 252 256 258 259 259 259 260 262 264 266 267 269 272 272 269 269
250 250 250 251 252 253 253 255 256 256 257 259 262 264 267 270 273 276 279 281 283 285 286 287 290 292 294 297 299 300 301 302 304 306 305 301 298 289 278 272 266 255 242 229 221 216 214 214 215 213 214 219 222 220 219 223 226 227 227 230 235 237 237 236 235 235 237 242 246 249 253 257 258 259 260 260 261 262 264 266 268 269 269 268 269
251 251 251 251 252 253 254 255 256 257 259 260 263 265 268 270 273 276 278 281 283 284 286 287 289 291 294 297 300 301 302 302 303 305 305 301 298 289 276 269 263 253 243 231 222 217 214 213 214 214 215 218 220 219 219 221 225 225 225 228 232 236 236 235 234 235 238 241 244 247 251 255 258 260 260 259 258 259 261 263 264 265 267 269 269
252 252 252 252 253 254 255 256 257 259 260 262 264 266 268 271 273 276 278 280 282 283 285 287 288 291 293 296 299 301 301 301 302 304 304 301 297 290 276 266 260 251 242 232 224 219 215 213 214 215 216 218 220 219 219 222 224 223 220 223 229 233 235 236 237 237 240 243 246 248 252 256 259 261 259 256 256 257 259 261 263 263 265 267 267
253 254 254 254 254 255 256 257 259 260 261 263 265 267 269 271 273 275 278 280 282 283 285 286 287 290 292 295 298 299 300 300 300 302 303 301 296 290 277 264 257 250 241 232 226 221 216 214 214 216 218 220 221 221 220 221 223 222 220 224 231 236 237 238 239 240 242 245 248 251 254 256 258 259 257 254 255 256 257 259 261 262 264 265 267
253 254 255 255 256 256 258 259 261 262 263 265 266 268 269 271 273 275 278 279 281 283 284 285 286 289 291 294 296 298 298 299 299 300 301 299 294 289 279 263 254 249 241 233 226 222 218 215 215 216 219 221 223 224 223 222 222 224 225 227 231 237 239 240 242 243 244 246 248 250 252 254 256 257 255 254 255 256 258 259 260 262 264 265 266
254 255 256 256 257 258 259 261 262 264 265 266 267 269 271 272 274 276 278 279 281 282 284 285 286 287 290 292 294 296 297 298 298 298 298 297 292 287 280 266 252 246 242 235 227 223 220 217 215 216 218 222 225 226 226 224 224 225 227 228 229 231 234 237 240 241 242 245 247 249 251 253 254 253 252 252 254 256 258 259 261 263 263 264 265
256 256 257 257 257 258 259 261 262 264 266 267 269 270 272 273 275 276 278 279 281 282 283 284 285 286 288 291 293 294 295 296 297 297 296 295 290 284 279 269 255 245 241 236 229 223 220 219 217 216 217 221 224 226 226 226 225 225 227 228 229 231 233 235 237 239 241 243 245 248 249 248 248 247 247 249 252 254 256 258 260 262 263 264 265
257 257 258 257 258 258 259 260 262 264 266 268 269 271 272 274 275 277 278 279 281 282 283 284 284 285 288 290 291 293 294 295 295 295 295 293 289 282 276 269 258 247 240 237 232 225 221 220 219 217 218 219 222 225 226 226 226 226 227 229 231 233 236 238 239 241 243 245 246 248 246 244 244 246 248 251 253 254 256 259 260 262 263 265 266
258 258 258 258 258 259 260 261 262 264 266 267 269 271 272 274 275 277 278 279 281 282 283 283 284 285 287 289 290 292 293 293 293 293 292 290 287 281 275 268 260 249 241 237 234 229 223 220 220 219 219 219 220 223 225 226 226 227 228 230 231 233 236 239 241 242 244 245 246 246 245 244 245 247 250 252 254 256 258 259 260 261 263 265 267
258 258 259 259 259 260 261 261 263 264 266 267 269 271 272 274 276 277 279 280 281 282 283 283 284 285 286 288 290 291 291 292 291 290 289 287 285 280 274 268 260 252 244 237 235 232 227 223 220 220 221 221 221 221 223 225 226 227 228 230 232 234 236 239 241 242 242 243 243 242 242 243 245 247 250 254 256 258 259 259 260 261 262 264 265
259 259 259 260 260 261 262 263 264 265 267 268 270 272 274 275 277 278 279 280 281 282 282 283 284 285 286 288 289 290 290 289 289 287 286 284 282 279 274 268 261 254 247 240 234 233 231 227 223 221 222 223 222 221 222 224 226 227 228 230 231 233 235 238 240 242 242 242 243 242 241 243 246 249 253 256 258 259 259 259 260 260 261 262 262
260 260 261 261 262 262 263 265 266 268 269 271 272 274 275 276 277 278 279 280 281 281 282 283 284 285 286 287 288 288 288 287 286 284 282 280 279 277 274 270 263 255 249 243 237 233 232 230 228 224 222 223 224 223 223 223 225 226 228 229 231 233 235 237 240 242 243 243 244 244 245 246 248 251 253 255 256 256 257 258 258 258 259 260 261
261 262 263 263 264 265 266 267 269 270 272 273 274 275 276 277 278 278 279 280 281 281 282 283 284 285 286 287 287 287 286 284 283 281 279 277 276 274 273 270 266 258 250 245 240 235 232 230 230 228 226 224 225 225 224 223 224 225 226 227 230 233 235 237 239 241 243 244 244 244 245 247 249 251 252 252 252 253 254 256 256 257 258 260 261
263 264 265 266 267 267 268 270 271 272 273 275 276 276 277 278 278 279 280 280 281 282 283 284 285 285 286 286 285 284 283 282 280 279 277 275 273 272 271 269 267 262 254 246 242 238 234 231 230 229 229 227 226 226 225 224 224 224 225 226 228 232 235 237 238 240 242 243 244 245 246 247 249 250 250 251 251 252 254 255 256 258 259 260 261
264 265 266 268 269 270 271 272 273 274 275 276 276 277 278 279 280 280 281 282 283 284 284 285 285 285 285 284 283 282 281 280 279 277 275 274 272 270 269 268 266 263 258 251 244 240 237 234 231 229 229 229 229 228 227 226 225 225 226 226 228 231 235 237 238 239 241 242 243 244 246 247 249 249 250 250 251 252 253 254 255 257 258 259 260
266 267 268 269 270 272 272 273 274 275 276 276 277 278 279 280 281 282 283 284 284 285 285 285 285 284 284 283 282 282 281 280 278 277 275 273 271 269 268 266 264 263 260 255 248 242 239 236 233 231 229 228 228 229 229 228 227 226 226 227 228 231 234 236 237 238 240 242 243 244 245 246 247 248 249 250 250 251 251 252 253 254 256 257 259
268 269 270 271 272 273 274 274 275 276 277 278 279 279 281 282 283 283 284 285 285 285 285 285 284 284 283 283 282 281 280 279 278 276 275 272 270 269 267 265 263 261 260 257 252 246 241 238 235 233 231 229 228 228 229 229 229 227 226 226 227 229 231 233 234 235 237 239 241 242 243 244 246 247 248 249 249 250 250 250 250 252 253 255 257
269 270 271 272 273 274 275 276 277 277 278 279 280 281 282 283 283 283 284 284 284 284 284 284 284 283 283 283 282 281 280 279 278 276 274 272 270 267 265 263 261 259 258 256 254 250 244 240 237 235 233 232 230 228 227 228 230 230 228 226 226 228 228 229 230 232 234 235 236 237 239 241 243 246 247 248 248 249 249 249 250 251 252 254 256
271 272 273 274 274 275 276 277 278 279 280 281 281 282 282 283 283 283 283 283 284 284 284 284 284 284 283 283 282 281 280 279 277 276 274 272 269 267 264 262 260 258 256 254 253 251 247 243 239 237 235 234 232 231 229 228 228 230 230 228 227 227 228 228 229 230 232 234 234 234 235 237 239 242 244 245 246 246 247 248 249 250 252 254 255
272 273 274 275 276 277 278 279 279 280 281 281 282 282 282 283 283 284 284 284 285 285 285 285 285 285 284 284 283 282 281 279 278 276 274 272 270 267 265 262 260 258 256 253 251 250 249 245 241 238 236 235 233 232 232 230 229 229 230 231 230 229 229 229 229 230 231 233 234 235 235 235 237 239 240 242 243 244 245 246 247 249 251 252 254
274 275 276 276 277 278 278 279 280 280 281 281 282 283 283 284 284 284 285 285 285 285 285 285 286 286 286 285 285 284 283 281 279 277 275 273 270 268 266 263 260 258 256 254 251 248 247 246 243 240 237 235 234 233 232 232 231 230 230 231 231 231 231 231 231 231 232 233 234 235 236 236 236 236 238 239 242 244 246 246 246 247 248 250 252
275 276 276 277 277 278 279 279 280 281 282 282 283 283 284 284 284 285 285 285 285 286 286 287 287 287 287 286 286 285 284 283 282 279 277 274 272 269 266 264 261 259 256 255 253 250 247 245 244 242 238 235 233 232 231 231 232 232 231 231 231 232 232 232 232 233 234 235 236 236 237 237 237 236 237 238 240 244 247 248 248 248 249 250 252
275 276 276 277 278 279 280 280 281 282 282 283 283 284 284 284 285 285 286 286 286 287 287 287 287 287 287 286 285 284 283 282 282 280 279 276 273 271 268 265 262 260 257 255 254 252 248 245 244 243 240 237 234 232 231 231 231 231 231 232 232 232 233 233 234 234 234 235 237 238 239 239 240 239 239 239 240 243 246 249 250 251 252 252 253
Height
10736 10735 10735 10736 10737 10740 10742 10745 10747 10746 10745 10745 10746 10747 10747 10748 10747 10747 10747 10746 10747 10747 10746 10745 10744 10743 10742 10742 10744 10745 10746 10746 10745 10744 10746 10747 10747 10747 10747 10745 10744 10742 10738 10734 10734 10736 10736 10737 10738 10738 10740 10741 10741 10740 10740 10740 10741 10743 10742 10742 10742 10742 10741 10741 10740 10740 10739 10738 10738 10738 10738 10738 10738 10738 10738 10737 10737 10736 10735 10735 10735 10735 10734 10733 10732
10728 10728 10729 10731 10734 10736 10737 10740 10740 10738 10738 10739 10740 10740 10740 10741 10740 10740 10740 10740 10740 10740 10739 10738 10737 10736 10734 10735 10737 10740 10741 10743 10743 10741 10743 10745 10745 10744 10743 10741 10740 10739 10735 10731 10731 10732 10733 10734 10735 10735 10737 10739 10739 10739 10738 10738 10738 10739 10739 10738 10740 10740 10739 10738 10738 10738 10737 10736 10736 10735 10735 10735 10736 10736 10735 10735 10735 10734 10734 10733 10733 10733 10732 10732 10731
10721 10722 10724 10727 10729 10731 10732 10734 10733 10732 10733 10734 10734 10734 10733 10734 10733 10733 10733 10733 10733 10732 10731 10731 10730 10729 10727 10728 10730 10732 10735 10738 10739 10738 10738 10739 10737 10735 10735 10734 10734 10734 10731 10728 10728 10729 10730 10731 10731 10732 10734 10735 10736 10736 10737 10736 10734 10734 10734 10734 10735 10735 10735 10735 10735 10736 10736 10734 10733 10733 10733 10733 10733 10733 10733 10733 10733 10732 10732 10731 10731 10731 10730 10730 10729
10715 10717 10720 10722 10724 10725 10726 10727 10726 10727 10728 10729 10729 10728 10727 10727 10727 10727 10727 10727 10726 10725 10724 10723 10723 10722 10721 10721 10723 10725 10727 10730 10732 10732 10730 10730 10728 10728 10728 10727 10726 10727 10726 10724 10724 10724 10726 10727 10727 10728 10730 10732 10733 10733 10734 10733 10730 10729 10730 10731 10731 10731 10731 10732 10732 10733 10733 10733 10731 10731 10731 10731 10731 10731 10731 10731 10731 10730 10730 10729 10729 10729 10728 10727 10727
10709 10711 10714 10716 10718 10719 10720 10720 10720 10721 10722 10723 10723 10722 10722 10721 10721 10720 10720 10720 10719 10718 10717 10716 10716 10715 10715 10715 10716 10717 10719 10722 10724 10723 10722 10721 10722 10723 10723 10721 10720 10721 10721 10720 10720 10720 10722 10723 10724 10725 10726 10727 10729 10730 10731 10730 10727 10725 10726 10727 10727 10728 10728 10729 10729 10730 10731 10731 10730 10729 10729 10729 10729 10729 10729 10728 10728 10728 10727 10727 10726 10726 10725 10725 10724
10704 10705 10707 10710 10712 10713 10714 10714 10714 10715 10717 10718 10717 10716 10716 10715 10715 10715 10714 10713 10712 10711 10711 10710 10710 10709 10708 10708 10708 10709 10711 10713 10715 10714 10713 10714 10716 10717 10718 10717 10716 10717 10717 10717 10716 10717 10719 10720 10721 10721 10722 10723 10725 10726 10726 10727 10725 10723 10724 10725 10724 10725 10726 10726 10727 10727 10727 10728 10728 10727 10727 10727 10727 10726 10726 10726 10725 10725 10724 10724 10724 10724 10723 10723 10722
10698 10699 10701 10703 10705 10707 10708 10708 10708 10710 10711 10712 10712 10711 10710 10709 10709 10709 10708 10707 10706 10705 10705 10704 10703 10703 10702 10702 10701 10701 10702 10704 10705 10706 10707 10708 10710 10712 10713 10714 10713 10713 10714 10713 10714 10715 10716 10717 10717 10717 10717 10719 10721 10722 10723 10723 10723 10722 10723 10724 10724 10724 10725 10724 10724 10724 10724 10725 10726 10726 10725 10725 10724 10724 10723 10723 10723 10722 10721 10721 10721 10721 10721 10720 10720
10692 10693 10695 10697 10699 10701 10703 10703 10703 10704 10705 10705 10706 10706 10704 10704 10703 10703 10703 10702 10701 10700 10699 10699 10698 10697 10697 10696 10696 10694 10695 10696 10697 10699 10700 10702 10704 10707 10709 10710 10709 10710 10710 10710 10710 10712 10713 10714 10713 10714 10714 10715 10718 10719 10720 10720 10721 10720 10721 10724 10724 10723 10722 10722 10721 10721 10722 10722 10723 10724 10723 10722 10722 10721 10721 10720 10720 10720 10719 10719 10719 10719 10718 10718 10717
10686 10687 10689 10691 10693 10696 10697 10697 10697 10698 10699 10699 10700 10700 10699 10698 10698 10697 10696 10696 10696 10694 10694 10694 10693 10692 10691 10690 10690 10689 10689 10690 10691 10692 10694 10696 10698 10701 10704 10705 10705 10705 10706 10706 10707 10708 10709 10710 10710 10710 10711 10712 10714 10716 10717 10717 10718 10718 10719 10721 10722 10720 10720 10719 10719 10719 10719 10719 10720 10720 10721 10720 10719 10718 10718 10718 10718 10718 10717 10716 10716 10716 10715 10715 10715
10680 10681 10683 10685 10687 10690 10691 10691 10692 10692 10693 10693 10694 10694 10693 10693 10692 10692 10691 10690 10690 10689 10689 10689 10688 10687 10686 10685 10685 10684 10684 10685 10686 10687 10689 10691 10693 10696 10699 10700 10700 10702 10702 10703 10703 10704 10704 10705 10706 10707 10707 10709 10711 10712 10713 10713 10714 10715 10716 10717 10717 10717 10716 10716 10717 10718 10716 10716 10717 10717 10718 10718 10716 10715 10715 10715 10715 10715 10715 10714 10713 10713 10713 10712 10712
10674 10675 10677 10679 10681 10683 10685 10686 10686 10687 10687 10687 10688 10688 10688 10687 10687 10686 10685 10685 10684 10684 10684 10683 10683 10683 10682 10681 10680 10679 10679 10680 10681 10682 10684 10685 10687 10689 10693 10695 10696 10698 10699 10700 10700 10700 10700 10701 10702 10703 10704 10705 10706 10707 10708 10709 10710 10711 10712 10713 10712 10712 10712 10713 10715 10716 10714 10713 10714 10715 10715 10715 10714 10713 10712 10712 10712 10712 10712 10711 10711 10711 10710 10710 10709
10668 10670 10672 10674 10675 10677 10679 10680 10681 10681 10682 10682 10682 10682 10682 10682 10681 10681 10680 10680 10679 10679 10679 10678 10678 10678 10677 10676 10675 10675 10675 10675 10676 10677 10678 10679 10681 10684 10687 10691 10693 10694 10696 10697 10696 10696 10697 10698 10699 10699 10700 10701 10701 10702 10703 10705 10706 10708 10708 10709 10709 10709 10708 10710 10712 10712 10710 10710 10712 10712 10713 10712 10712 10711 10710 10709 10709 10709 10709 10709 10709 10708 10707 10707 10706
10663 10664 10665 10667 10669 10672 10673 10674 10675 10676 10676 10676 10676 10676 10676 10676 10676 10675 10675 10675 10674 10674 10673 10673 10673 10673 10672 10671 10671 10671 10671 10670 10670 10671 10672 10674 10676 10679 10683 10688 10691 10691 10692 10693 10693 10693 10694 10695 10696 10697 10697 10698 10698 10699 10700 10702 10703 10705 10705 10705 10706 10706 10706 10707 10708 10707 10706 10707 10708 10709 10709 10709 10709 10709 10708 10707 10706 10706 10706 10706 10706 10705 10705 10704 10704
10657 10657 10659 10661 10664 10666 10667 10668 10669 10670 10670 10671 10671 10671 10671 10670 10670 10670 10670 10670 10669 10668 10668 10667 10667 10667 10667 10666 10666 10666 10666 10666 10665 10665 10666 10668 10671 10674 10677 10682 10686 10687 10688 10689 10690 10690 10691 10692 10692 10694 10694 10695 10696 10697 10699 10700 10700 10701 10701 10702 10703 10704 10704 10704 10704 10703 10703 10703 10703 10705 10706 10706 10706 10706 10705 10704 10703 10703 10703 10703 10702 10702 10701 10702 10701
10651 10651 10653 10655 10658 10660 10661 10663 10663 10663 10664 10665 10665 10665 10665 10665 10665 10665 10665 10665 10664 10663 10663 10663 10662 10662 10661 10661 10660 10660 10660 10660 10660 10660 10660 10662 10666 10668 10670 10673 10677 10680 10682 10685 10687 10688 10689 10689 10689 10690 10691 10692 10693 10694 10696 10697 10698 10698 10698 10699 10700 10701 10701 10700 10700 10699 10700 10700 10700 10701 10703 10703 10702 10702 10702 10701 10701 10700 10700 10700 10699 10699 10698 10698 10698
10645 10645 10647 10649 10652 10654 10655 10657 10657 10657 10658 10658 10659 10659 10660 10660 10660 10660 10660 10660 10659 10659 10658 10658 10657 10657 10656 10655 10655 10655 10655 10654 10654 10654 10654 10655 10658 10660 10662 10665 10669 10672 10675 10679 10683 10684 10684 10685 10686 10686 10687 10688 10690 10691 10693 10694 10695 10695 10695 10696 10696 10697 10697 10697 10696 10696 10696 10697 10698 10698 10699 10699 10699 10699 10698 10697 10697 10697 10697 10696 10696 10696 10695 10695 10695
10639 10640 10641 10644 10647 10648 10649 10651 10651 10651 10652 10652 10653 10654 10654 10655 10655 10655 10655 10655 10654 10654 10653 10653 10652 10651 10650 10650 10650 10649 10649 10648 10648 10648 10647 10647 10649 10651 10654 10658 10661 10665 10668 10671 10675 10676 10676 10678 10680 10681 10682 10684 10685 10687 10689 10691 10691 10692 10692 10693 10693 10693 10693 10693 10693 10693 10693 10693 10693 10695 10696 10695 10695 10696 10695 10694 10694 10693 10693 10693 10692 10692 10692 10692 10692
10633 10634 10636 10639 10641 10642 10644 10645 10645 10645 10645 10646 10647 10648 10648 10649 10649 10650 10649 10649 10649 10648 10647 10647 10646 10645 10645 10644 10644 10643 10642 10641 10640 10640 10640 10640 10640 10642 10646 10650 10653 10656 10660 10664 10666 10666 10667 10670 10674 10676 10678 10679 10681 10683 10684 10686 10687 10688 10689 10690 10690 10689 10689 10690 10690 10690 10690 10688 10688 10691 10692 10691 10691 10692 10692 10691 10690 10690 10689 10689 10689 10689 10689 10689 10688
10628 10630 10631 10633 10635 10636 10638 10639 10639 10639 10640 10641 10641 10642 10643 10643 10643 10644 10644 10644 10643 10643 10642 10641 10640 10639 10638 10638 10637 10637 10636 10634 10633 10632 10631 10631 10632 10633 10636 10641 10643 10645 10649 10655 10658 10658 10661 10665 10668 10671 10673 10675 10676 10678 10679 10681 10683 10685 10686 10687 10686 10685 10685 10686 10686 10687 10686 10685 10685 10687 10688 10687 10687 10687 10687 10687 10686 10686 10686 10685 10685 10685 10685 10685 10684
10624 10625 10626 10628 10630 10631 10633 10633 10633 10634 10635 10636 10636 10637 10637 10638 10638 10638 10638 10638 10637 10637 10637 10636 10635 10633 10632 10632 10631 10630 10629 10628 10626 10624 10622 10622 10623 10624 10625 10628 10631 10633 10638 10644 10647 10650 10655 10659 10662 10665 10668 10670 10672 10674 10675 10677 10679 10680 10681 10682 10682 10681 10682 10682 10683 10683 10683 10682 10682 10682 10683 10684 10684 10683 10683 10683 10682 10682 10682 10681 10681 10681 10681 10681 10681
10618 10620 10621 10623 10625 10626 10627 10627 10628 10629 10630 10631 10631 10632 10632 10633 10633 10633 10632 10632 10632 10632 10631 10630 10629 10628 10627 10626 10625 10624 10623 10622 10620 10617 10615 10613 10613 10615 10616 10617 10619 10623 10627 10631 10636 10642 10647 10652 10657 10661 10663 10665 10667 10669 10671 10672 10674 10675 10677 10678 10677 10677 10678 10678 10679 10679 10679 10679 10679 10678 10679 10680 10680 10679 10679 10679 10679 10679 10678 10677 10677 10677 10677 10677 10677
10613 10615 10617 10619 10620 10621 10621 10622 10622 10624 10625 10625 10626 10627 10627 10628 10628 10628 10627 10627 10626 10626 10625 10624 10623 10622 10621 10620 10619 10618 10617 10615 10613 10610 10607 10605 10604 10605 10607 10607 10609 10612 10616 10622 10627 10633 10640 10645 10651 10655 10657 10659 10662 10665 10666 10668 10669 10670 10672 10672 10672 10672 10673 10674 10674 10675 10676 10676 10675 10674 10675 10675 10675 10675 10675 10675 10675 10675 10674 10674 10673 10673 10673 10672 10672
10609 10611 10613 10614 10614 10615 10616 10616 10618 10619 10619 10620 10621 10622 10623 10623 10623 10622 10622 10621 10621 10620 10618 10617 10616 10615 10614 10614 10613 10612 10611 10609 10607 10604 10600 10597 10596 10596 10597 10598 10599 10601 10606 10613 10619 10626 10632 10637 10641 10644 10647 10650 10654 10658 10660 10662 10663 10666 10667 10667 10667 10668 10669 10669 10670 10671 10672 10671 10670 10669 10670 10670 10670 10671 10671 10670 10670 10671 10671 10670 10669 10668 10668 10667 10667
10605 10606 10608 10608 10609 10610 10611 10611 10613 10613 10614 10615 10616 10616 10617 10617 10617 10616 10616 10615 10615 10613 10612 10611 10610 10608 10608 10607 10606 10605 10604 10603 10601 10598 10594 10591 10588 10587 10588 10588 10589 10592 10596 10603 10610 10617 10623 10627 10632 10635 10638 10641 10645 10649 10652 10654 10656 10660 10661 10661 10661 10663 10664 10664 10665 10667 10666 10666 10665 10665 10665 10665 10665 10667 10666 10665 10665 10666 10667 10666 10665 10664 10663 10662 10661
10600 10601 10602 10603 10604 10604 10605 10606 10607 10608 10609 10610 10610 10611 10611 10611 10611 10610 10609 10609 10608 10607 10606 10605 10603 10602 10601 10600 10599 10598 10598 10596 10594 10591 10589 10585 10582 10580 10580 10580 10581 10583 10587 10593 10601 10607 10613 10619 10624 10629 10633 10635 10638 10641 10642 10644 10648 10652 10654 10655 10656 10657 10658 10659 10660 10661 10661 10660 10660 10660 10661 10661 10661 10662 10661 10660 10660 10661 10662 10662 10661 10660 10659 10657 10656
10594 10595 10597 10598 10599 10599 10600 10601 10602 10603 10603 10604 10604 10605 10605 10605 10605 10604 10603 10603 10602 10601 10600 10599 10598 10597 10595 10594 10592 10591 10591 10590 10588 10585 10583 10580 10576 10574 10573 10573 10573 10575 10579 10585 10591 10598 10604 10609 10616 10622 10626 10628 10630 10632 10632 10634 10638 10643 10646 10647 10649 10650 10652 10654 10655 10655 10656 10655 10655 10655 10655 10656 10657 10656 10655 10656 10657 10657 10656 10657 10657 10657 10656 10654 10652
10588 10589 10591 10592 10594 10594 10595 10596 10597 10597 10598 10598 10598 10599 10599 10599 10598 10598 10597 10597 10596 10595 10594 10593 10592 10590 10589 10587 10586 10585 10584 10583 10582 10580 10577 10575 10572 10569 10568 10567 10567 10569 10572 10577 10583 10589 10595 10601 10608 10615 10617 10619 10621 10623 10624 10626 10629 10633 10637 10640 10642 10643 10645 10648 10649 10651 10650 10648 10648 10649 10649 10651 10652 10651 10650 10651 10651 10651 10650 10652 10653 10652 10652 10651 10649
10582 10584 10586 10587 10588 10589 10590 10591 10591 10592 10592 10592 10593 10593 10593 10593 10592 10592 10591 10590 10590 10589 10588 10587 10585 10584 10582 10581 10579 10578 10577 10576 10575 10574 10572 10570 10567 10565 10563 10562 10562 10563 10565 10569 10575 10580 10586 10593 10601 10606 10607 10608 10611 10614 10618 10620 10622 10626 10629 10633 10635 10637 10640 10642 10643 10644 10642 10640 10641 10643 10644 10645 10645 10645 10645 10645 10645 10645 10645 10647 10648 10646 10646 10647 10646
10577 10579 10580 10582 10583 10584 10585 10586 10586 10586 10586 10587 10587 10587 10588 10587 10587 10586 10585 10584 10583 10582 10581 10580 10579 10577 10576 10574 10573 10571 10571 10570 10569 10567 10566 10564 10563 10560 10559 10558 10557 10558 10559 10563 10568 10573 10579 10586 10592 10596 10597 10598 10601 10606 10611 10615 10617 10620 10623 10627 10630 10632 10633 10634 10635 10636 10635 10634 10635 10637 10638 10639 10639 10638 10639 10640 10640 10640 10641 10642 10643 10641 10640 10642 10642
10572 10574 10575 10576 10578 10579 10580 10580 10581 10581 10581 10582 10582 10582 10582 10581 10581 10580 10578 10577 10576 10575 10574 10573 10572 10571 10570 10568 10567 10565 10564 10563 10562 10561 10560 10558 10557 10556 10554 10553 10553 10553 10554 10557 10561 10566 10571 10578 10583 10587 10589 10590 10593 10600 10605 10608 10610 10613 10616 10620 10623 10623 10623 10626 10628 10629 10629 10628 10628 10630 10631 10632 10632 10632 10633 10634 10634 10635 10635 10636 10637 10636 10634 10635 10636
10567 10568 10569 10571 10573 10574 10575 10575 10576 10576 10576 10576 10576 10576 10576 10575 10574 10573 10572 10571 10570 10568 10567 10566 10565 10564 10563 10562 10561 10559 10558 10557 10556 10555 10554 10553 10552 10551 10550 10549 10548 10548 10549 10551 10554 10559 10564 10570 10575 10579 10581 10583 10587 10593 10597 10599 10603 10607 10610 10613 10614 10613 10614 10618 10620 10622 10623 10622 10622 10624 10625 10625 10625 10626 10627 10627 10628 10629 10629 10629 10630 10630 10628 10628 10629
10561 10562 10564 10566 10568 10569 10570 10570 10570 10570 10570 10570 10570 10570 10570 10569 10568 10567 10566 10565 10563 10562 10561 10560 10559 10558 10557 10556 10554 10553 10552 10550 10549 10549 10548 10547 10546 10545 10545 10544 10544 10543 10544 10545 10548 10552 10557 10562 10567 10571 10574 10576 10580 10586 10589 10591 10596 10600 10603 10605 10607 10607 10607 10610 10612 10614 10616 10615 10616 10618 10619 10619 10618 10618 10620 10621 10621 10622 10623 10622 10623 10623 10622 10621 10622
10556 10557 10559 10561 10562 10563 10564 10564 10564 10564 10564 10564 10564 10564 10563 10563 10562 10561 10560 10559 10557 10556 10554 10553 10552 10551 10550 10549 10547 10546 10544 10543 10542 10542 10542 10541 10540 10539 10539 10539 10539 10539 10539 10540 10542 10545 10549 10554 10559 10563 10566 10569 10573 10577 10580 10584 10589 10592 10595 10598 10600 10600 10601 10603 10604 10606 10608 10608 10609 10611 10613 10613 10611 10611 10613 10614 10614 10614 10615 10616 10616 10616 10615 10615 10615
10551 10553 10554 10556 10557 10558 10558 10558 10558 10557 10557 10556 10556 10556 10556 10556 10555 10554 10553 10551 10550 10549 10548 10546 10545 10544 10543 10541 10540 10538 10537 10536 10535 10534 10535 10535 10534 10533 10533 10533 10534 10534 10534 10534 10536 10539 10542 10546 10551 10555 10559 10562 10566 10568 10571 10576 10581 10584 10587 10591 10592 10592 10593 10595 10596 10598 10599 10600 10602 10605 10606 10606 10605 10604 10606 10607 10606 10606 10607 10608 10609 10609 10608 10608 10608
10546 10547 10549 10550 10552 10552 10552 10552 10551 10550 10549 10549 10549 10549 10549 10548 10547 10546 10545 10544 10543 10542 10540 10539 10538 10536 10535 10534 10533 10531 10530 10528 10527 10527 10527 10527 10528 10527 10526 10527 10527 10528 10528 10529 10530 10532 10535 10539 10543 10547 10551 10554 10557 10560 10563 10568 10572 10576 10580 10583 10583 10584 10585 10586 10587 10590 10591 10592 10595 10597 10598 10599 10598 10598 10598 10598 10598 10599 10599 10601 10602 10602 10601 10601 10601
10540 10541 10543 10544 10545 10545 10546 10545 10544 10543 10543 10543 10542 10542 10541 10540 10539 10538 10537 10536 10534 10533 10532 10531 10530 10528 10527 10526 10524 10524 10523 10521 10520 10519 10519 10519 10520 10521 10520 10520 10520 10522 10523 10523 10524 10526 10528 10531 10535 10539 10542 10546 10548 10551 10555 10559 10563 10568 10572 10574 10575 10576 10577 10578 10580 10583 10584 10586 10588 10589 10590 10591 10591 10590 10590 10591 10591 10591 10593 10595 10595 10594 10594 10594 10595
10534 10535 10536 10537 10538 10538 10538 10537 10537 10537 10537 10536 10535 10534 10533 10532 10531 10530 10529 10527 10526 10525 10524 10523 10522 10520 10519 10517 10516 10515 10514 10514 10512 10511 10511 10511 10512 10513 10513 10513 10513 10514 10516 10517 10518 10520 10521 10524 10527 10531 10534 10537 10540 10543 10546 10550 10554 10558 10562 10565 10567 10569 10570 10571 10573 10575 10577 10578 10580 10580 10582 10584 10585 10583 10583 10584 10584 10585 10587 10588 10587 10587 10587 10587 10588
10528 10529 10529 10530 10531 10530 10530 10529 10530 10530 10530 10529 10528 10527 10526 10525 10523 10522 10521 10519 10518 10517 10515 10514 10513 10512 10510 10509 10507 10506 10505 10505 10504 10503 10502 10502 10503 10504 10505 10506 10506 10507 10508 10510 10511 10513 10515 10517 10519 10522 10525 10528 10531 10534 10537 10541 10545 10549 10553 10557 10559 10561 10562 10564 10565 10567 10569 10570 10571 10573 10575 10577 10576 10575 10575 10577 10578 10579 10580 10580 10580 10581 10581 10580 10581
10522 10522 10523 10523 10523 10523 10522 10521 10522 10522 10522 10521 10520 10519 10518 10517 10515 10514 10512 10510 10509 10507 10506 10505 10503 10502 10501 10500 10498 10497 10496 10495 10495 10494 10494 10493 10493 10494 10496 10497 10498 10499 10500 10502 10503 10505 10507 10510 10512 10514 10517 10519 10523 10526 10529 10533 10537 10540 10543 10547 10549 10550 10552 10555 10557 10558 10560 10561 10563 10566 10568 10568 10567 10568 10569 10570 10571 10572 10572 10572 10572 10574 10573 10572 10573
10515 10515 10516 10516 10516 10515 10514 10514 10514 10514 10513 10513 10512 10511 10510 10508 10506 10505 10503 10501 10500 10498 10497 10495 10494 10492 10491 10490 10488 10487 10486 10485 10485 10485 10485 10484 10484 10485 10486 10488 10490 10491 10492 10493 10495 10496 10499 10501 10504 10506 10508 10511 10513 10517 10520 10524 10528 10531 10535 10538 10539 10540 10543 10546 10548 10549 10550 10552 10555 10558 10560 10559 10559 10561 10564 10564 10564 10563 10563 10564 10566 10566 10565 10564 10565
10508 10508 10508 10509 10508 10508 10507 10506 10506 10505 10505 10504 10503 10502 10500 10499 10497 10495 10494 10492 10491 10489 10487 10486 10484 10483 10481 10479 10478 10477 10476 10475 10475 10474 10475 10475 10475 10475 10476 10478 10480 10482 10483 10485 10486 10488 10490 10492 10495 10497 10500 10502 10505 10507 10511 10515 10519 10522 10525 10528 10530 10531 10534 10537 10539 10540 10541 10542 10546 10550 10551 10551 10551 10554 10556 10556 10555 10556 10556 10556 10558 10558 10556 10556 10557
10501 10501 10501 10501 10501 10500 10500 10499 10498 10497 10496 10495 10494 10492 10490 10489 10487 10485 10484 10482 10480 10479 10477 10476 10474 10472 10471 10469 10467 10466 10466 10465 10464 10464 10465 10465 10465 10466 10466 10467 10469 10471 10474 10475 10477 10479 10480 10483 10485 10488 10491 10494 10496 10499 10502 10505 10509 10512 10515 10519 10521 10523 10525 10528 10530 10532 10533 10534 10537 10541 10542 10543 10544 10545 10546 10546 10547 10548 10548 10548 10549 10549 10548 10548 10548
10494 10494 10494 10493 10493 10493 10492 10491 10490 10489 10488 10486 10484 10482 10480 10478 10477 10475 10473 10471 10469 10467 10466 10464 10462 10461 10459 10458 10457 10456 10455 10454 10454 10454 10454 10454 10455 10456 10456 10457 10458 10460 10463 10465 10467 10469 10471 10473 10475 10478 10481 10484 10487 10490 10493 10496 10499 10502 10505 10508 10512 10515 10518 10520 10522 10523 10524 10525 10529 10532 10534 10535 10535 10534 10534 10537 10538 10539 10539 10539 10539 10539 10539 10538 10538
10487 10487 10486 10486 10485 10485 10484 10483 10482 10480 10479 10477 10475 10473 10470 10468 10466 10464 10461 10459 10457 10455 10453 10452 10450 10449 10447 10446 10446 10445 10445 10444 10444 10443 10443 10444 10444 10445 10446 10446 10447 10448 10451 10453 10456 10458 10460 10462 10465 10467 10470 10473 10476 10479 10483 10486 10489 10492 10495 10498 10503 10507 10510 10510 10511 10514 10514 10516 10520 10523 10525 10526 10524 10522 10523 10527 10529 10529 10529 10529 10529 10529 10529 10528 10528
10479 10479 10479 10478 10477 10476 10475 10474 10473 10471 10469 10467 10465 10463 10460 10458 10456 10453 10450 10448 10445 10443 10441 10439 10438 10437 10436 10435 10434 10434 10433 10433 10432 10432 10432 10432 10432 10433 10434 10435 10436 10437 10439 10441 10444 10446 10449 10451 10454 10457 10460 10463 10466 10469 10472 10476 10479 10482 10485 10489 10493 10497 10499 10500 10502 10505 10505 10507 10511 10513 10514 10514 10513 10511 10514 10517 10518 10519 10519 10520 10520 10520 10519 10519 10519
10472 10471 10471 10470 10469 10468 10466 10465 10463 10461 10459 10457 10455 10453 10450 10448 10445 10443 10440 10437 10435 10433 10430 10428 10427 10425 10424 10423 10422 10421 10421 10420 10419 10419 10419 10419 10419 10420 10421 10422 10423 10425 10427 10428 10431 10434 10436 10439 10442 10446 10449 10452 10455 10458 10462 10466 10469 10472 10476 10479 10483 10486 10488 10490 10492 10494 10494 10496 10499 10501 10502 10503 10502 10502 10504 10506 10507 10507 10508 10509 10510 10510 10510 10511 10511
10464 10463 10462 10461 10460 10459 10457 10455 10453 10451 10449 10447 10445 10442 10440 10437 10435 10432 10429 10427 10424 10422 10420 10418 10416 10414 10412 10411 10409 10408 10407 10407 10406 10406 10406 10406 10406 10407 10408 10408 10409 10411 10414 10416 10418 10420 10423 10427 10430 10433 10437 10441 10445 10448 10452 10455 10458 10462 10465 10469 10472 10475 10478 10480 10482 10483 10484 10485 10487 10489 10490 10491 10491 10492 10494 10495 10496 10496 10496 10497 10499 10500 10501 10501 10502
10456 10455 10454 10453 10451 10449 10448 10446 10443 10441 10439 10437 10434 10432 10430 10427 10425 10422 10419 10416 10413 10411 10409 10406 10404 10402 10400 10398 10396 10395 10394 10394 10393 10394 10393 10393 10393 10394 10394 10395 10396 10397 10399 10402 10405 10407 10410 10414 10417 10420 10424 10428 10433 10437 10440 10444 10447 10451 10454 10458 10461 10463 10466 10469 10471 10472 10473 10475 10476 10478 10479 10481 10481 10482 10483 10484 10485 10485 10486 10487 10488 10490 10491 10491 10491
10447 10446 10445 10443 10442 10440 10438 10436 10434 10432 10430 10427 10425 10422 10420 10417 10415 10412 10409 10406 10403 10401 10398 10396 10394 10392 10389 10387 10384 10383 10382 10381 10381 10381 10381 10380 10380 10381 10381 10382 10383 10384 10386 10388 10391 10395 10397 10400 10404 10407 10411 10415 10419 10423 10428 10431 10435 10439 10442 10446 10449 10452 10454 10457 10460 10461 10462 10463 10464 10466 10468 10470 10471 10472 10473 10474 10475 10474 10475 10476 10477 10479 10480 10480 10481
10439 10437 10436 10434 10432 10431 10429 10427 10425 10423 10420 10418 10416 10413 10410 10408 10405 10402 10399 10397 10394 10392 10389 10386 10384 10382 10379 10377 10374 10372 10370 10369 10368 10368 10368 10368 10368 10368 10368 10369 10370 10371 10372 10375 10378 10381 10384 10387 10390 10394 10397 10401 10404 10408 10413 10417 10422 10426 10429 10433 10436 10439 10442 10445 10447 10450 10451 10451 10453 10454 10456 10458 10460 10461 10463 10464 10464 10464 10464 10464 10465 10468 10470 10471 10472
10430 10428 10427 10425 10424 10422 10420 10418 10416 10414 10412 10409 10407 10404 10402 10399 10396 10393 10390 10388 10385 10383 10380 10378 10375 10372 10370 10367 10365 10363 10361 10359 10357 10356 10355 10356 10356 10356 10355 10356 10357 10358 10359 10362 10365 10367 10370 10374 10377 10380 10383 10387 10390 10394 10397 10402 10406 10411 10415 10419 10423 10426 10429 10432 10435 10437 10439 10440 10442 10444 10445 10447 10448 10450 10451 10452 10453 10453 10453 10454 10455 10457 10459 10461 10462